GW6608 Weather Reports


time (UTC)temp
C
wind
direction
speed
KPH
gust
KPH
rain 1hr
cm
rain 24hr
cm
rain mn
cm
humidity
%
barometer
mb
20260508005056 12 173 0.0 0.0 0.00 0.03 0.03 41 1009.8
20260508004552 12 173 0.0 0.0 0.00 0.03 0.03 41 1009.9
20260508004049 12 173 0.0 0.0 0.00 0.03 0.03 41 1010.0
20260508003546 12 173 0.0 0.0 0.00 0.03 0.03 41 1009.8
20260508003044 12 173 0.0 0.0 0.00 0.03 0.03 41 1009.8
20260508002539 12 173 0.0 0.0 0.00 0.03 0.03 41 1009.6
20260508002037 12 173 0.0 0.0 0.00 0.03 0.03 40 1009.5
20260508001533 12 173 0.0 0.0 0.00 0.03 0.03 39 1009.4
20260508001029 12 173 0.0 0.0 0.00 0.03 0.03 38 1009.3
20260508000525 13 173 0.0 0.0 0.00 0.03 0.03 37 1009.4
20260508000023 13 173 0.0 0.0 0.00 0.03 0.03 37 1009.2
20260507235519 13 167 0.0 0.0 0.00 0.03 0.03 36 1009.3
20260507235017 13 161 0.0 3.2 0.00 0.03 0.03 35 1009.1
20260507234513 13 162 0.0 0.0 0.00 0.03 0.03 35 1009.3
20260507234009 13 150 1.6 3.2 0.00 0.03 0.03 35 1009.1
20260507233506 13 154 0.0 1.6 0.00 0.03 0.03 34 1009.1
20260507233005 14 160 0.0 0.0 0.00 0.03 0.03 35 1009.2
20260507232501 14 151 0.0 3.2 0.00 0.03 0.03 35 1009.2
20260507231958 14 155 0.0 3.2 0.00 0.03 0.03 34 1009.0
20260507231454 15 146 0.0 3.2 0.00 0.03 0.03 34 1009.0
20260507230952 15 154 3.2 3.2 0.00 0.03 0.03 34 1008.9
20260507230449 15 173 0.0 1.6 0.00 0.03 0.03 34 1008.8
20260507225944 15 124 0.0 3.2 0.00 0.03 0.03 34 1008.7
20260507225440 15 145 0.0 3.2 0.00 0.03 0.03 34 1008.8
20260507224936 15 145 0.0 3.2 0.00 0.03 0.03 33 1008.7
20260507224432 15 152 0.0 4.8 0.00 0.03 0.03 34 1008.6
20260507223929 15 165 0.0 3.2 0.00 0.03 0.03 34 1008.6
20260507223425 15 153 0.0 3.2 0.00 0.03 0.03 34 1008.6
20260507222922 15 119 1.6 11.3 0.00 0.03 0.03 33 1008.5
20260507222419 15 166 3.2 4.8 0.00 0.03 0.03 33 1008.6
20260507221916 15 139 1.6 4.8 0.00 0.03 0.03 33 1008.4
20260507221412 16 131 1.6 6.4 0.00 0.03 0.03 32 1008.4
20260507220908 16 148 1.6 6.4 0.00 0.03 0.03 32 1008.3
20260507220407 16 197 3.2 4.8 0.00 0.03 0.03 33 1008.2
20260507215903 16 231 4.8 9.7 0.00 0.03 0.03 31 1008.3
20260507215359 16 195 3.2 9.7 0.00 0.03 0.03 31 1008.2
20260507214857 16 111 1.6 3.2 0.00 0.03 0.03 33 1008.4
20260507214354 16 169 1.6 6.4 0.00 0.03 0.03 31 1008.3
20260507213850 16 187 1.6 3.2 0.00 0.03 0.03 32 1008.2
20260507213346 16 187 3.2 4.8 0.00 0.03 0.03 32 1008.2
20260507212843 16 234 6.4 6.4 0.00 0.03 0.03 32 1008.1
20260507212339 16 163 1.6 9.7 0.00 0.03 0.03 31 1008.2
20260507211836 17 228 6.4 9.7 0.00 0.03 0.03 32 1008.2
20260507211333 16 89 0.0 3.2 0.00 0.03 0.03 31 1008.2
20260507210829 16 83 3.2 4.8 0.00 0.03 0.03 30 1008.1
20260507210327 16 145 1.6 4.8 0.00 0.03 0.03 34 1008.2
20260507205823 17 159 1.6 11.3 0.00 0.03 0.03 31 1008.1
20260507205320 17 120 3.2 3.2 0.00 0.03 0.03 32 1008.0
20260507204816 17 216 3.2 9.7 0.00 0.03 0.03 30 1007.7
20260507204314 16 105 1.6 3.2 0.00 0.03 0.03 34 1008.0
20260507203812 16 104 3.2 6.4 0.00 0.03 0.03 33 1008.0
20260507203309 16 81 1.6 3.2 0.00 0.03 0.03 34 1008.0
20260507202805 16 129 1.6 3.2 0.00 0.03 0.03 35 1007.9
20260507202301 17 99 1.6 3.2 0.00 0.03 0.03 34 1008.0
20260507201756 17 48 1.6 3.2 0.00 0.03 0.03 34 1007.9
20260507201253 16 136 0.0 3.2 0.00 0.03 0.03 36 1008.0
20260507200749 16 107 3.2 9.7 0.00 0.03 0.03 35 1008.1
20260507200245 17 129 3.2 3.2 0.00 0.03 0.03 34 1008.0
20260507195741 17 157 1.6 3.2 0.00 0.03 0.03 33 1008.2
20260507195239 17 101 0.0 3.2 0.00 0.03 0.03 34 1008.1
20260507194736 17 228 1.6 3.2 0.00 0.03 0.03 34 1008.2
20260507194232 17 108 4.8 6.4 0.00 0.03 0.03 32 1008.1
20260507193729 17 181 1.6 12.9 0.00 0.03 0.03 32 1008.2
20260507193226 17 99 1.6 3.2 0.00 0.03 0.03 34 1008.2
20260507192722 17 131 1.6 3.2 0.00 0.03 0.03 33 1008.1
20260507192219 17 128 3.2 6.4 0.00 0.03 0.03 31 1008.3
20260507191714 17 199 3.2 4.8 0.00 0.03 0.03 33 1008.4
20260507191212 18 150 4.8 6.4 0.00 0.03 0.03 31 1008.4
20260507190709 18 161 3.2 4.8 0.00 0.03 0.03 31 1008.1
20260507190207 18 204 3.2 6.4 0.00 0.03 0.03 32 1008.1
20260507185705 18 190 3.2 4.8 0.00 0.03 0.03 32 1008.0
20260507185202 18 96 1.6 4.8 0.00 0.03 0.03 32 1008.1
20260507184659 18 92 1.6 3.2 0.00 0.03 0.03 34 1008.2
20260507184157 18 152 3.2 4.8 0.00 0.03 0.03 33 1008.3
20260507183653 18 155 3.2 6.4 0.00 0.03 0.03 36 1008.4
20260507183150 17 219 3.2 4.8 0.00 0.03 0.03 35 1008.5
20260507182648 17 81 1.6 6.4 0.00 0.03 0.03 37 1008.4
20260507182143 18 115 3.2 6.4 0.00 0.03 0.03 37 1008.4
20260507181640 18 72 1.6 3.2 0.00 0.03 0.03 36 1008.4
20260507181136 17 151 1.6 4.8 0.00 0.03 0.03 39 1008.3
20260507180632 17 175 1.6 6.4 0.00 0.03 0.03 43 1008.5
20260507180130 18 223 4.8 6.4 0.00 0.03 0.03 40 1008.5
20260507175625 17 71 3.2 4.8 0.00 0.03 0.03 41 1008.6
20260507175123 17 132 1.6 3.2 0.00 0.03 0.03 39 1008.6
20260507174620 17 178 4.8 12.9 0.00 0.03 0.03 39 1008.8
20260507174118 17 120 3.2 11.3 0.00 0.03 0.03 44 1008.7
20260507173615 17 117 8.0 14.5 0.00 0.03 0.03 41 1008.7
20260507173112 17 219 3.2 9.7 0.00 0.03 0.03 40 1008.6
20260507172607 17 175 3.2 6.4 0.00 0.03 0.03 38 1008.8
20260507172106 17 215 3.2 4.8 0.00 0.03 0.03 39 1008.9
20260507171600 17 207 4.8 4.8 0.00 0.03 0.03 41 1008.9
20260507171057 17 83 3.2 3.2 0.00 0.03 0.03 43 1008.9
20260507170554 17 221 3.2 4.8 0.00 0.03 0.03 43 1008.9
20260507170051 16 123 1.6 4.8 0.00 0.03 0.03 48 1008.9
20260507165547 17 178 0.0 4.8 0.00 0.03 0.03 45 1009.0
20260507165044 16 81 1.6 9.7 0.00 0.03 0.03 45 1009.2
20260507164540 17 81 1.6 4.8 0.00 0.03 0.03 43 1009.0
20260507164037 16 171 3.2 4.8 0.00 0.03 0.03 45 1009.1
20260507163534 16 138 3.2 3.2 0.00 0.03 0.03 46 1009.2
20260507163033 16 121 1.6 6.4 0.00 0.03 0.03 46 1009.1
20260507162532 17 189 4.8 6.4 0.00 0.03 0.03 45 1009.3
20260507162030 17 115 3.2 3.2 0.00 0.03 0.03 44 1009.0
20260507161526 17 161 3.2 9.7 0.00 0.03 0.03 44 1009.3
20260507161023 17 101 1.6 6.4 0.00 0.03 0.03 42 1009.4
20260507160519 17 115 1.6 9.7 0.00 0.03 0.03 40 1009.4
20260507160015 17 208 1.6 9.7 0.00 0.03 0.03 43 1009.6
20260507155510 17 178 3.2 9.7 0.00 0.03 0.03 43 1009.5
20260507155008 17 203 4.8 4.8 0.00 0.03 0.03 45 1009.6
20260507154504 17 227 6.4 9.7 0.00 0.03 0.03 43 1009.6
20260507154002 16 110 1.6 4.8 0.00 0.03 0.03 47 1009.9
20260507153458 14 93 0.0 4.8 0.00 0.03 0.03 60 1009.6
20260507152955 13 160 1.6 4.8 0.00 0.03 0.03 69 1009.8
20260507152451 13 177 1.6 3.2 0.00 0.03 0.03 66 1009.9
20260507151947 14 163 3.2 6.4 0.00 0.03 0.03 62 1009.7
20260507151443 13 152 0.0 1.6 0.00 0.03 0.03 66 1009.9
20260507150940 13 185 0.0 1.6 0.00 0.03 0.03 63 1009.9
20260507150437 14 155 1.6 6.4 0.00 0.03 0.03 61 1010.0
20260507145934 15 122 3.2 4.8 0.00 0.03 0.03 63 1009.9
20260507145429 16 152 0.0 1.6 0.00 0.03 0.03 59 1010.0
20260507144926 16 238 3.2 11.3 0.00 0.03 0.03 50 1009.7
20260507144423 15 82 0.0 4.8 0.00 0.03 0.03 53 1010.1
20260507143921 15 149 0.0 3.2 0.00 0.03 0.03 55 1009.7
20260507143418 15 82 1.6 3.2 0.00 0.03 0.03 59 1010.1
20260507142914 15 91 0.0 1.6 0.00 0.03 0.03 52 1009.9
20260507142410 15 65 3.2 3.2 0.00 0.03 0.03 52 1010.0
20260507141907 15 167 0.0 1.6 0.00 0.03 0.03 53 1009.8
20260507141403 15 114 0.0 4.8 0.00 0.03 0.03 56 1010.0
20260507140900 15 228 4.8 4.8 0.00 0.03 0.03 57 1010.2
20260507140357 14 177 0.0 0.0 0.00 0.03 0.03 59 1010.2
20260507135855 14 41 1.6 1.6 0.00 0.03 0.03 58 1010.3
20260507135351 14 195 3.2 3.2 0.00 0.03 0.03 61 1010.3
20260507134849 13 123 0.0 1.6 0.00 0.03 0.03 59 1010.5
20260507134345 13 99 0.0 3.2 0.00 0.03 0.03 61 1010.4
20260507133841 13 83 0.0 3.2 0.00 0.03 0.03 61 1010.5
20260507133336 13 153 0.0 1.6 0.00 0.03 0.03 62 1010.4
20260507132835 13 194 1.6 3.2 0.00 0.03 0.03 62 1010.5
20260507132331 13 89 0.0 1.6 0.00 0.03 0.03 64 1010.6
20260507131829 13 156 0.0 1.6 0.00 0.03 0.03 65 1010.6
20260507131325 13 137 0.0 0.0 0.00 0.03 0.03 67 1010.7
20260507130822 13 144 0.0 0.0 0.00 0.03 0.03 68 1010.6
20260507130319 13 187 1.6 3.2 0.00 0.03 0.03 68 1010.8
20260507125818 13 203 1.6 3.2 0.00 0.03 0.03 68 1010.5
20260507125315 13 104 0.0 1.6 0.00 0.03 0.03 70 1010.6
20260507124813 12 152 0.0 1.6 0.00 0.03 0.03 72 1010.6
20260507124309 12 179 3.2 3.2 0.00 0.03 0.03 72 1010.6
20260507123807 12 117 0.0 1.6 0.00 0.03 0.03 71 1010.6
20260507123304 12 167 1.6 1.6 0.00 0.03 0.03 72 1010.9
20260507122800 12 94 0.0 1.6 0.00 0.03 0.03 75 1010.9
20260507122255 12 155 0.0 0.0 0.00 0.03 0.03 74 1010.7
20260507121752 11 147 0.0 3.2 0.00 0.03 0.03 77 1010.9
20260507121248 11 102 1.6 3.2 0.00 0.03 0.03 78 1010.7
20260507120744 11 179 0.0 3.2 0.00 0.03 0.03 79 1010.9
20260507120241 11 111 0.0 0.0 0.00 0.03 0.03 81 1010.7
20260507115737 11 113 0.0 0.0 0.00 0.03 0.03 84 1010.8
20260507115233 11 138 0.0 3.2 0.00 0.03 0.03 84 1010.7
20260507114729 10 131 0.0 0.0 0.00 0.03 0.03 88 1010.7
20260507114226 10 168 0.0 1.6 0.00 0.03 0.03 87 1010.8
20260507113724 10 125 0.0 0.0 0.00 0.03 0.03 87 1010.6
20260507113220 10 116 0.0 0.0 0.00 0.03 0.03 86 1010.5
20260507112718 10 120 0.0 0.0 0.00 0.03 0.03 86 1010.4
20260507112215 10 149 0.0 0.0 0.00 0.03 0.03 85 1010.8
20260507111712 10 149 0.0 0.0 0.00 0.03 0.03 87 1010.6
20260507111209 9 149 0.0 0.0 0.00 0.03 0.03 87 1010.6
20260507110705 9 149 0.0 0.0 0.00 0.03 0.03 87 1010.8
20260507110202 9 149 0.0 0.0 0.00 0.03 0.03 87 1010.9
20260507105659 9 149 0.0 0.0 0.00 0.03 0.03 88 1010.8
20260507105154 9 149 0.0 0.0 0.00 0.03 0.03 88 1010.9
20260507104652 8 149 0.0 0.0 0.00 0.03 0.03 89 1010.7
20260507104148 8 149 0.0 0.0 0.00 0.03 0.03 89 1010.8
20260507103644 8 149 0.0 0.0 0.00 0.03 0.03 90 1010.7
20260507103141 8 149 0.0 0.0 0.00 0.03 0.03 89 1010.9
20260507102637 8 149 0.0 0.0 0.00 0.03 0.03 89 1011.4
20260507102134 8 149 0.0 0.0 0.00 0.03 0.03 89 1010.8
20260507101630 8 149 0.0 0.0 0.00 0.03 0.03 89 1011.0
20260507101126 8 149 0.0 0.0 0.00 0.03 0.03 89 1010.9
20260507100623 8 149 0.0 0.0 0.00 0.03 0.03 89 1010.9
20260507100121 8 149 0.0 0.0 0.00 0.03 0.03 88 1010.6
20260507095619 8 149 0.0 0.0 0.00 0.03 0.03 88 1010.7
20260507095115 8 149 0.0 0.0 0.00 0.03 0.03 88 1010.7
20260507094611 8 149 0.0 0.0 0.00 0.03 0.03 89 1010.8
20260507094109 9 149 0.0 0.0 0.00 0.03 0.03 88 1010.7
20260507093606 9 109 0.0 0.0 0.00 0.03 0.03 88 1010.2
20260507093105 9 111 0.0 0.0 0.00 0.03 0.03 88 1010.2
20260507092601 9 144 0.0 0.0 0.00 0.03 0.03 88 1010.6
20260507092057 9 124 0.0 0.0 0.00 0.03 0.03 87 1010.6
20260507091554 9 135 0.0 1.6 0.00 0.03 0.03 88 1010.2
20260507091050 9 116 0.0 0.0 0.00 0.03 0.03 87 1010.2
20260507090546 9 113 0.0 0.0 0.00 0.03 0.03 88 1010.2
20260507090043 9 128 0.0 0.0 0.00 0.03 0.03 87 1010.2
20260507085540 10 105 0.0 0.0 0.00 0.03 0.03 88 1010.0
20260507085037 10 97 1.6 1.6 0.00 0.03 0.03 89 1010.1
20260507084534 10 192 0.0 3.2 0.00 0.03 0.03 90 1010.1
20260507084031 10 108 0.0 3.2 0.00 0.03 0.03 92 1010.1
20260507083527 10 121 0.0 1.6 0.00 0.03 0.03 94 1010.2
20260507083024 10 145 0.0 3.2 0.00 0.03 0.03 95 1010.5
20260507082520 10 128 0.0 0.0 0.00 0.03 0.03 95 1010.4
20260507082016 10 139 0.0 1.6 0.00 0.03 0.03 95 1010.3
20260507081513 10 118 0.0 0.0 0.00 0.03 0.03 95 1009.9
20260507081010 10 118 0.0 0.0 0.00 0.03 0.03 95 1010.0
20260507080506 10 118 0.0 0.0 0.00 0.03 0.03 95 1009.9
20260507080001 10 118 0.0 0.0 0.00 0.03 0.03 95 1010.0
20260507075458 10 118 0.0 0.0 0.00 0.03 0.03 95 1009.5
20260507074954 10 118 0.0 0.0 0.00 0.03 0.03 95 1009.5
20260507074451 10 118 0.0 0.0 0.00 0.03 0.03 95 1009.7
20260507073950 10 146 0.0 0.0 0.00 0.03 0.03 95 1009.7
20260507073445 10 144 0.0 0.0 0.00 0.03 0.03 96 1010.0
20260507072942 10 132 0.0 0.0 0.00 0.03 0.03 96 1009.9
20260507072440 10 178 0.0 0.0 0.00 0.03 0.03 96 1009.7
20260507071937 10 169 0.0 0.0 0.00 0.03 0.03 96 1009.7
20260507071434 10 169 0.0 0.0 0.00 0.03 0.03 96 1009.5
20260507070930 10 169 0.0 0.0 0.00 0.03 0.03 96 1009.3
20260507070428 10 169 0.0 0.0 0.00 0.03 0.03 96 1009.4
20260507065924 11 169 0.0 0.0 0.00 0.03 0.03 96 1009.3
20260507065421 11 169 0.0 0.0 0.00 0.03 0.03 96 1009.4
20260507064918 11 169 0.0 0.0 0.00 0.03 0.03 96 1009.3
20260507064417 11 168 0.0 0.0 0.00 0.03 0.03 96 1009.2
20260507063914 11 169 0.0 0.0 0.00 0.03 0.03 96 1009.5
20260507063411 11 169 0.0 0.0 0.00 0.03 0.03 96 1009.4
20260507062908 11 169 0.0 0.0 0.00 0.03 0.03 96 1009.2
20260507062405 11 169 0.0 0.0 0.00 0.03 0.03 96 1009.6
20260507061902 11 169 0.0 0.0 0.00 0.03 0.03 96 1009.2
20260507061400 11 169 0.0 0.0 0.00 0.03 0.03 96 1008.9
20260507060859 11 169 0.0 0.0 0.00 0.03 0.03 96 1009.0
20260507060355 11 169 0.0 0.0 0.00 0.03 0.03 96 1009.3
20260507055852 11 169 0.0 0.0 0.00 0.03 0.03 96 1009.3
20260507055352 11 169 0.0 1.6 0.00 0.03 0.03 96 1009.3
20260507054850 11 175 0.0 1.6 0.00 0.03 0.03 96 1009.2
20260507054345 11 142 0.0 1.6 0.00 0.03 0.03 96 1008.7
20260507053843 11 108 0.0 3.2 0.00 0.03 0.03 96 1008.7
20260507053341 11 145 0.0 0.0 0.00 0.03 0.03 97 1008.4
20260507052840 11 145 0.0 0.0 0.00 0.03 0.03 97 1008.8
20260507052336 11 165 0.0 1.6 0.00 0.03 0.03 97 1009.0
20260507051833 11 176 1.6 1.6 0.00 0.03 0.03 97 1008.7
20260507051331 11 162 0.0 1.6 0.00 0.03 0.03 97 1008.5
20260507050827 11 170 1.6 3.2 0.00 0.03 0.03 97 1008.5
20260507050324 11 125 0.0 1.6 0.00 0.03 0.03 97 1008.4
20260507045821 12 167 0.0 1.6 0.00 0.03 0.03 97 1008.9
20260507045317 12 134 0.0 0.0 0.00 0.03 0.03 98 1008.8
20260507044815 12 171 1.6 1.6 0.00 0.03 0.03 98 1008.7
20260507044311 12 177 0.0 1.6 0.00 0.03 0.03 98 1008.5
20260507043807 12 129 0.0 3.2 0.00 0.03 0.03 98 1008.2
20260507043304 12 182 1.6 3.2 0.00 0.03 0.03 98 1008.2
20260507042800 12 202 3.2 3.2 0.18 0.03 0.03 98 1008.1
20260507042255 12 132 0.0 1.6 0.18 0.03 0.03 98 1007.9
20260507041753 12 173 1.6 4.8 0.00 0.00 0.00 98 1008.3
20260507041249 12 198 1.6 4.8 0.00 0.00 0.00 98 1008.1
20260507040746 12 154 1.6 3.2 0.00 0.00 0.00 98 1008.1
20260507040242 12 213 3.2 3.2 0.00 0.00 0.00 98 1008.0
20260507035739 12 181 0.0 1.6 0.00 0.58 0.58 99 1008.2
20260507035234 12 196 3.2 3.2 0.00 0.58 0.58 99 1008.4
20260507034732 12 193 0.0 0.0 0.00 0.58 0.58 99 1008.2
20260507034228 12 193 0.0 0.0 0.00 0.58 0.58 99 1008.5
20260507033727 12 193 0.0 1.6 0.00 0.58 0.58 99 1008.3
20260507033224 12 193 0.0 1.6 0.13 0.58 0.58 98 1008.2
20260507032722 12 203 3.2 3.2 0.13 0.58 0.58 98 1008.0
20260507032217 12 151 0.0 0.0 0.00 0.56 0.56 98 1008.2
20260507031714 12 134 0.0 1.6 0.00 0.56 0.56 98 1007.9
20260507031211 12 233 3.2 3.2 0.00 0.56 0.56 98 1007.7
20260507030708 12 169 0.0 3.2 0.00 0.56 0.56 98 1007.7
20260507030206 12 211 4.8 4.8 0.00 0.56 0.56 98 1007.7
20260507025702 12 175 1.6 6.4 0.00 0.56 0.56 98 1007.8
20260507025159 12 175 0.0 3.2 0.00 0.56 0.56 98 1007.8
20260507024657 12 229 1.6 3.2 0.00 0.56 0.56 98 1008.0
20260507024154 12 184 1.6 11.3 0.00 0.56 0.56 98 1007.9
20260507023649 12 205 1.6 4.8 0.00 0.56 0.56 98 1008.1
20260507023147 12 191 3.2 6.4 0.00 0.56 0.56 98 1007.8
20260507022644 12 180 4.8 6.4 0.00 0.56 0.56 98 1008.0
20260507022140 12 153 1.6 6.4 0.00 0.56 0.56 98 1008.0
20260507021636 12 173 3.2 6.4 0.00 0.56 0.56 98 1008.2
20260507021132 12 221 4.8 6.4 0.00 0.56 0.56 98 1008.2
20260507020630 12 145 1.6 6.4 0.00 0.56 0.56 98 1008.4
20260507020126 12 205 3.2 6.4 0.00 0.56 0.56 98 1008.4
20260507015625 12 188 1.6 3.2 0.00 0.56 0.56 98 1008.4
20260507015122 12 169 3.2 6.4 0.00 0.56 0.56 98 1008.3
20260507014618 12 223 3.2 4.8 0.00 0.56 0.56 98 1008.3
20260507014114 12 144 0.0 9.7 0.00 0.56 0.56 98 1008.5
20260507013611 12 210 3.2 11.3 0.00 0.56 0.56 98 1008.5
20260507013108 12 223 6.4 11.3 0.00 0.56 0.56 98 1008.5
20260507012605 12 206 3.2 4.8 0.00 0.56 0.56 98 1008.6
20260507012101 12 239 6.4 12.9 0.00 0.56 0.56 98 1008.5
20260507011559 12 269 3.2 12.9 0.00 0.56 0.56 98 1008.6
20260507011055 12 183 9.7 12.9 0.00 0.56 0.56 98 1008.6
20260507010550 12 196 3.2 9.7 0.00 0.56 0.56 98 1008.6
20260507010046 12 245 4.8 14.5 0.00 0.56 0.56 98 1008.5